When you browse on this site, cookies collect data to enhance your experience and personalize the content and advertising you see.
Visit our Privacy Policy to learn more. By continuing to use the site, you agree to this use of cookies and data.
  • In Lithuania
  • List of Countries
  • For 7 days
  • Water Temperature
  • Satellite Maps
  • Weather Map
  • Weather Widgets
  • user-avatar
    Login

    Hourly Weather Kofanov

    Today, 20 February, Wednesday

    Time Temperature Precipitation Wind Pressure Humidity
    00:00 -3°C° 0 mm 2 mps 747 mmHg 57%
    01:00 -3°C° 0 mm 2 mps 747 mmHg 57%
    02:00 -3°C° 0 mm 2 mps 746 mmHg 56%
    03:00 -4°C° 0 mm 3 mps 746 mmHg 53%
    04:00 -3°C° 0 mm 2 mps 746 mmHg 53%
    05:00 -3°C° 0 mm 2 mps 745 mmHg 52%
    06:00 -3°C° 0 mm 2 mps 745 mmHg 52%
    07:00 -2°C° 0 mm 2 mps 745 mmHg 49%
    08:00 -1°C° 0 mm 2 mps 745 mmHg 46%
    09:00 +1°C° 0 mm 2 mps 744 mmHg 43%
    10:00 +2°C° 0 mm 2 mps 744 mmHg 39%
    11:00 +5°C° 0 mm 1 mps 744 mmHg 35%
    12:00 +6°C° 0 mm 1 mps 743 mmHg 30%
    13:00 +6°C° 0 mm 1 mps 743 mmHg 30%
    14:00 +7°C° 0 mm 1 mps 743 mmHg 29%
    15:00 +6°C° 0 mm 0 mps 742 mmHg 29%
    16:00 +5°C° 0 mm 0 mps 742 mmHg 33%
    17:00 +4°C° 0 mm 0 mps 742 mmHg 37%
    18:00 +4°C° 0 mm 0 mps 742 mmHg 41%
    19:00 +3°C° 0 mm 0 mps 742 mmHg 42%
    20:00 +4°C° 0 mm 1 mps 742 mmHg 43%
    21:00 +3°C° 0 mm 1 mps 742 mmHg 45%
    22:00 +3°C° 0 mm 1 mps 742 mmHg 46%
    23:00 +3°C° 0 mm 1 mps 741 mmHg 47%

    Tomorrow, 21 February, Thursday

    Time Temperature Precipitation Wind Pressure Humidity
    00:00 +3°C° 0 mm 1 mps 741 mmHg 48%
    01:00 +3°C° 0 mm 1 mps 741 mmHg 49%
    02:00 +3°C° 0 mm 1 mps 741 mmHg 50%
    03:00 +3°C° 0 mm 1 mps 741 mmHg 50%
    04:00 +3°C° 0 mm 1 mps 741 mmHg 50%
    05:00 +3°C° 0 mm 1 mps 740 mmHg 50%
    06:00 +2°C° 0 mm 2 mps 740 mmHg 50%
    07:00 +3°C° 0 mm 2 mps 740 mmHg 48%
    08:00 +3°C° 0 mm 2 mps 740 mmHg 45%
    09:00 +4°C° 0 mm 2 mps 740 mmHg 43%
    10:00 +5°C° 0 mm 3 mps 740 mmHg 40%
    11:00 +7°C° 0 mm 3 mps 739 mmHg 36%
    12:00 +9°C° 0 mm 3 mps 739 mmHg 33%
    13:00 +8°C° 0 mm 5 mps 738 mmHg 36%
    14:00 +9°C° 0 mm 6 mps 738 mmHg 39%
    15:00 +9°C° 0 mm 7 mps 738 mmHg 42%
    16:00 +8°C° 0 mm 7 mps 738 mmHg 51%
    17:00 +6°C° 0 mm 7 mps 738 mmHg 60%
    18:00 +5°C° 0 mm 7 mps 738 mmHg 69%
    19:00 +4°C° 0.1 mm 8 mps 738 mmHg 68%
    20:00 +2°C° 0.1 mm 8 mps 738 mmHg 67%
    21:00 +1°C° 0.1 mm 8 mps 738 mmHg 66%
    22:00 +1°C° 0.1 mm 9 mps 738 mmHg 66%
    23:00 +1°C° 0.1 mm 9 mps 739 mmHg 67%

    Day after tomorrow, 22 February, Friday

    Time Temperature Precipitation Wind Pressure Humidity
    00:00 0°C° 0.1 mm 9 mps 739 mmHg 67%
    01:00 -1°C° 0.2 mm 9 mps 739 mmHg 69%
    02:00 -1°C° 0.2 mm 8 mps 739 mmHg 71%
    03:00 -2°C° 0.2 mm 8 mps 740 mmHg 73%
    04:00 -3°C° 0 mm 7 mps 740 mmHg 71%
    05:00 -4°C° 0 mm 6 mps 740 mmHg 69%
    06:00 -5°C° 0 mm 5 mps 741 mmHg 68%
    07:00 -4°C° 0 mm 6 mps 741 mmHg 64%
    08:00 -4°C° 0 mm 6 mps 741 mmHg 60%
    09:00 -3°C° 0 mm 7 mps 741 mmHg 57%
    10:00 -2°C° 0 mm 7 mps 741 mmHg 53%
    11:00 -1°C° 0 mm 8 mps 741 mmHg 49%
    12:00 0°C° 0 mm 9 mps 740 mmHg 45%
    13:00 +1°C° 0 mm 8 mps 740 mmHg 46%
    14:00 +2°C° 0 mm 8 mps 740 mmHg 47%
    15:00 +2°C° 0 mm 8 mps 739 mmHg 48%
    16:00 +3°C° 0 mm 6 mps 740 mmHg 52%
    17:00 +3°C° 0 mm 3 mps 740 mmHg 56%
    18:00 +4°C° 0 mm 1 mps 740 mmHg 61%
    19:00 +3°C° 0 mm 2 mps 740 mmHg 62%
    20:00 +3°C° 0 mm 2 mps 740 mmHg 64%
    21:00 +2°C° 0 mm 3 mps 740 mmHg 66%
    22:00 +2°C° 0 mm 3 mps 740 mmHg 69%
    23:00 +2°C° 0 mm 3 mps 739 mmHg 73%

    23 February, Saturday

    Time Temperature Precipitation Wind Pressure Humidity
    00:00 +1°C° 0 mm 4 mps 739 mmHg 76%
    01:00 +1°C° 0 mm 4 mps 739 mmHg 74%
    02:00 +1°C° 0 mm 5 mps 739 mmHg 73%
    03:00 +1°C° 0 mm 6 mps 738 mmHg 71%
    04:00 +1°C° 0 mm 6 mps 738 mmHg 71%
    05:00 +1°C° 0 mm 6 mps 738 mmHg 72%
    06:00 +1°C° 0 mm 6 mps 738 mmHg 73%
    07:00 +1°C° 0 mm 6 mps 738 mmHg 71%
    08:00 +2°C° 0 mm 6 mps 738 mmHg 70%
    09:00 +2°C° 0 mm 6 mps 739 mmHg 69%
    10:00 +3°C° 0.1 mm 5 mps 739 mmHg 67%
    11:00 +4°C° 0.1 mm 4 mps 739 mmHg 66%
    12:00 +5°C° 0.1 mm 4 mps 739 mmHg 64%
    13:00 +6°C° 0.1 mm 4 mps 739 mmHg 64%
    14:00 +6°C° 0.1 mm 4 mps 739 mmHg 64%
    15:00 +6°C° 0.1 mm 4 mps 739 mmHg 63%
    16:00 +6°C° 0.3 mm 4 mps 739 mmHg 68%
    17:00 +5°C° 0.3 mm 3 mps 740 mmHg 73%
    18:00 +5°C° 0.3 mm 3 mps 740 mmHg 77%
    19:00 +5°C° 0.5 mm 3 mps 741 mmHg 78%
    20:00 +4°C° 0.5 mm 3 mps 741 mmHg 80%
    21:00 +5°C° 0.5 mm 2 mps 742 mmHg 81%
    22:00 +5°C° 0.5 mm 2 mps 742 mmHg 82%
    23:00 +5°C° 0.5 mm 2 mps 743 mmHg 83%

    24 February, Sunday

    Time Temperature Precipitation Wind Pressure Humidity
    00:00 +6°C° 0.5 mm 1 mps 743 mmHg 84%
    01:00 +6°C° 0.1 mm 1 mps 743 mmHg 84%
    02:00 +6°C° 0.1 mm 1 mps 743 mmHg 84%
    03:00 +5°C° 0.1 mm 1 mps 744 mmHg 85%
    04:00 +5°C° 0 mm 1 mps 744 mmHg 87%
    05:00 +5°C° 0 mm 1 mps 744 mmHg 88%
    06:00 +4°C° 0 mm 1 mps 744 mmHg 90%
    07:00 +5°C° 0 mm 1 mps 744 mmHg 87%
    08:00 +4°C° 0 mm 2 mps 744 mmHg 85%
    09:00 +5°C° 0 mm 2 mps 745 mmHg 83%
    10:00 +6°C° 0 mm 2 mps 745 mmHg 75%
    11:00 +7°C° 0 mm 3 mps 745 mmHg 68%
    12:00 +8°C° 0 mm 3 mps 744 mmHg 61%
    13:00 +9°C° 0 mm 3 mps 744 mmHg 59%
    14:00 +9°C° 0 mm 3 mps 744 mmHg 57%
    15:00 +10°C° 0 mm 3 mps 744 mmHg 55%
    16:00 +9°C° 0 mm 3 mps 744 mmHg 60%
    17:00 +8°C° 0 mm 3 mps 744 mmHg 65%
    18:00 +7°C° 0 mm 3 mps 745 mmHg 71%
    19:00 +5°C° 0 mm 3 mps 745 mmHg 74%
    20:00 +5°C° 0 mm 3 mps 745 mmHg 76%
    21:00 +4°C° 0 mm 3 mps 745 mmHg 79%
    22:00 +4°C° 0 mm 3 mps 745 mmHg 81%
    23:00 +4°C° 0 mm 3 mps 745 mmHg 82%

    25 February, Monday

    Time Temperature Precipitation Wind Pressure Humidity
    00:00 +3°C° 0 mm 3 mps 745 mmHg 84%
    01:00 +3°C° 0 mm 3 mps 745 mmHg 85%
    02:00 +4°C° 0 mm 2 mps 745 mmHg 85%
    03:00 +4°C° 0 mm 2 mps 745 mmHg 86%
    04:00 +4°C° 0 mm 2 mps 745 mmHg 87%
    05:00 +4°C° 0 mm 2 mps 744 mmHg 88%
    06:00 +3°C° 0 mm 2 mps 744 mmHg 89%
    07:00 +4°C° 0 mm 2 mps 744 mmHg 86%
    08:00 +4°C° 0 mm 3 mps 744 mmHg 84%
    09:00 +4°C° 0 mm 3 mps 745 mmHg 82%
    10:00 +7°C° 0 mm 3 mps 744 mmHg 75%
    11:00 +8°C° 0 mm 3 mps 744 mmHg 68%
    12:00 +10°C° 0 mm 3 mps 743 mmHg 61%
    13:00 +11°C° 0 mm 3 mps 743 mmHg 58%
    14:00 +11°C° 0 mm 3 mps 742 mmHg 56%
    15:00 +12°C° 0 mm 3 mps 741 mmHg 53%
    16:00 +11°C° 0 mm 3 mps 741 mmHg 58%
    17:00 +10°C° 0 mm 4 mps 740 mmHg 63%
    18:00 +8°C° 0 mm 4 mps 740 mmHg 68%
    19:00 +7°C° 0 mm 4 mps 739 mmHg 70%
    20:00 +6°C° 0 mm 4 mps 738 mmHg 72%
    21:00 +6°C° 0 mm 5 mps 738 mmHg 75%
    22:00 +5°C° 0 mm 5 mps 737 mmHg 76%
    23:00 +5°C° 0 mm 5 mps 736 mmHg 76%
    Show more